Weather in Obukhivka

Ukraine / Dnipropetrovsk Region     48°32′25″N   34°52′52″E
temp.,
°C
wind,
m/s
gust,
m/s
humid.,
%
clouds,
%
prec.,
mm/h
press.,
hPa
HPBL,
m
28 february, sun
sun2823:00+2nnw4895100 0.0 1018478
02:00+2nw3698100 0.1 1018341
05:00+2nw3798100 0.1 1018383
08:00+2nnw4796100 0.4 1020407
11:00+2nnw4691100 0.1 1020467
14:00+3nw4784100 0.1 1020655
17:00+3nw4782100 0.2 1020687
20:00+1nw2689100 0.3 1021283
1 march, mon
mon123:000nw2595100 0.1 1022308
02:00−1wnw229592 0.1 102266
05:000nw239672 0.1 1023152
08:000n239280 0.1 1025255
11:00+2n237996 0.1 1026516
14:00+2n347097 0.1 1027773
17:00+2n237199 0.0 1028436
20:00+2nnw1269100 0.1 103077
2 march, tue
tue223:00+1wnw2368100 0.0 103070
02:00+1wnw3682100 0.0 1030218
05:00−1w368562 0.0 1028193
08:00+1wsw588281 0.0 1027438
11:00+5wsw6968100 0.0 1025730
14:00+7wsw7116598 0.0 1022872
17:00+7w5117044 0.0 1020809
20:00+5nw5107871 0.0 1020758
3 march, wed
wed323:00+2nw5118574 0.0 1019520
02:00+2nw499787 0.6 1020504
05:00+3nw61085100 0.1 1020876
08:00+2nnw71075100 0.2 10231072
11:00+3nnw576599 0.1 10241070
14:00+4nnw576196 0.1 10241080
17:00+3nnw576895 0.0 1025972
20:00+1nnw467096 0.0 1027854
4 march, thu
thu423:00+1nnw2469100 0.0 1027567
02:00−1w127365 0.0 102742
05:00−1sw24780 0.0 1026144
08:000sw35730 0.0 1025275
11:00+5sw57570 0.0 1023803
14:00+7sw69507 0.0 10201048
17:00+6sw5105810 0.0 1018648
20:00+4sw6137228 0.0 1017497